Bastrop, LA

8:27 AM CST on December 17, 2017 (GMT -0600)
Bastrop

Weather History for KBQP - May, 2013

Change the Weather History Date:

Wednesday, May 1, 2013

  Actual Average (KMLU) Record (KMLU)
Temperature  
Mean Temperature 68 °F -  
Max Temperature 72 °F 79 °F 91 °F (1987)
Min Temperature 64 °F 59 °F 41 °F (2014)
Cooling Degree Days 3    
Growing Degree Days 18 (Base 50)    
Moisture  
Dew Point 64 °F    
Average Humidity 88    
Maximum Humidity 93    
Minimum Humidity 75    
Precipitation  
Precipitation 1.90 in - - ()
Sea Level Pressure  
Sea Level Pressure 29.93 in    
Wind  
Wind Speed 2 mph (ENE)    
Max Wind Speed 14 mph    
Max Gust Speed 22 mph    
Visibility 8 miles    
Events Rain , Thunderstorm    
Averages and records for this station are not official NWS values.
T = Trace of Precipitation, MM = Missing Value Source: NWS Daily Summary

Daily Weather History Graph

Daily Weather History Graph

Search for Another Location

Airport or City:

Trip Planner

Search our weather history database for the weather conditions in past years. The results will help you decide how hot, cold, wet, or windy it might be!

Date:

Astronomy

May. 01, 2013 Rise Set
Actual Time 6:20 AM CDT 7:49 PM CDT
Civil Twilight 5:53 AM CDT 8:15 PM CDT
Nautical Twilight 5:22 AM CDT 8:47 PM CDT
Astronomical Twilight 4:49 AM CDT 9:20 PM CDT
Moon 12:58 AM CDT (5/1) 11:58 AM CDT (5/1)
Length of Visible Light 14h 21m
Length of Day
13h 29m
Waning Gibbous, 59% of the Moon is Illuminated
May 1
Waning Gibbous
May 2
Last Quarter
May 9
New
May 17
First Quarter
May 24
Full

Hourly Weather History & Observations

Time (CDT) Temp. Dew Point Humidity Pressure Visibility Wind Dir Wind Speed Gust Speed Precip Events Conditions
12:15 AM 71.2 °F 62.8 °F 75% 29.91 in 10.0 mi Calm Calm - N/A   Clear
12:55 AM 70.7 °F 62.2 °F 75% 29.92 in 10.0 mi Calm Calm - N/A   Scattered Clouds
1:15 AM 69.8 °F 63.5 °F 80% 29.92 in 10.0 mi Calm Calm - N/A   Light Drizzle
1:35 AM 69.3 °F 63.7 °F 82% 29.92 in 10.0 mi Calm Calm - N/A Rain Light Rain
1:55 AM 68.5 °F 64.0 °F 85% 29.91 in 10.0 mi Calm Calm - 0.01 in Rain Light Rain
2:15 AM 68.0 °F 64.0 °F 87% 29.90 in 7.0 mi Calm Calm - 0.01 in Rain Light Rain
2:35 AM 67.5 °F 64.4 °F 90% 29.90 in 10.0 mi Calm Calm - 0.02 in Rain Light Rain
2:55 AM 67.1 °F 64.2 °F 90% 29.89 in 10.0 mi Calm Calm - 0.02 in   Mostly Cloudy
3:15 AM 67.1 °F 64.0 °F 90% 29.89 in 10.0 mi Calm Calm - 0.01 in   Mostly Cloudy
3:35 AM 67.3 °F 64.2 °F 90% 29.88 in 10.0 mi Calm Calm - 0.01 in Rain Light Rain
3:55 AM 67.3 °F 64.0 °F 89% 29.89 in 10.0 mi Calm Calm - 0.01 in Rain Light Rain
4:15 AM 67.1 °F 63.7 °F 89% 29.89 in 7.0 mi Calm Calm - 0.02 in Rain Rain
4:35 AM 66.7 °F 63.9 °F 90% 29.89 in 7.0 mi Calm Calm - 0.05 in Rain Rain
4:55 AM 66.6 °F 63.9 °F 91% 29.89 in 7.0 mi Calm Calm - 0.09 in Rain Rain
5:15 AM 66.6 °F 64.2 °F 92% 29.90 in 3.0 mi Calm Calm - 0.11 in Rain Heavy Rain
5:35 AM 66.6 °F 64.4 °F 93% 29.90 in 3.0 mi Calm Calm - 0.23 in Rain Rain
5:55 AM 66.6 °F 64.2 °F 92% 29.90 in 3.0 mi Calm Calm - 0.33 in Rain Rain
6:15 AM 66.2 °F 63.9 °F 92% 29.90 in 4.0 mi Calm Calm - 0.09 in Rain Rain
6:35 AM 66.2 °F 63.9 °F 92% 29.91 in 4.0 mi Calm Calm - 0.12 in Rain Heavy Rain
6:55 AM 66.6 °F 64.4 °F 93% 29.91 in 7.0 mi Calm Calm - 0.15 in Rain Heavy Rain
7:15 AM 66.7 °F 64.4 °F 92% 29.92 in 2.0 mi ENE 6.9 mph - 0.23 in Rain Heavy Rain
7:35 AM 66.7 °F 64.4 °F 92% 29.92 in 3.0 mi Calm Calm - 0.35 in Rain Rain
7:55 AM 67.3 °F 64.9 °F 92% 29.92 in 10.0 mi Calm Calm - 0.36 in   Overcast
8:15 AM 67.1 °F 64.6 °F 92% 29.92 in 10.0 mi Calm Calm - N/A   Overcast
8:35 AM 67.3 °F 64.8 °F 92% 29.93 in 10.0 mi ENE 4.6 mph - N/A   Overcast
8:55 AM 67.5 °F 64.9 °F 92% 29.93 in 5.0 mi Calm Calm - 0.02 in Rain Rain
9:15 AM 67.8 °F 65.3 °F 92% 29.93 in 5.0 mi Calm Calm - 0.01 in Rain Rain
9:35 AM 68.4 °F 65.8 °F 92% 29.93 in 10.0 mi ENE 4.6 mph - 0.02 in   Overcast
9:55 AM 68.9 °F 66.2 °F 91% 29.94 in 10.0 mi East 4.6 mph - 0.02 in   Overcast
10:15 AM 69.4 °F 66.6 °F 91% 29.94 in 10.0 mi Calm Calm - N/A   Overcast
10:35 AM 69.3 °F 66.2 °F 90% 29.94 in 10.0 mi Calm Calm - N/A   Overcast
10:55 AM 69.4 °F 66.2 °F 89% 29.94 in 10.0 mi East 3.5 mph - N/A   Overcast
11:15 AM 69.8 °F 66.6 °F 89% 29.95 in 10.0 mi East 3.5 mph - N/A   Overcast
11:35 AM 69.8 °F 66.2 °F 88% 29.95 in 10.0 mi Calm Calm - N/A   Overcast
11:55 AM 69.8 °F 66.4 °F 89% 29.94 in 10.0 mi Calm Calm - N/A   Overcast
12:15 PM 70.3 °F 66.7 °F 88% 29.94 in 10.0 mi Calm Calm - N/A   Overcast
12:35 PM 70.3 °F 67.1 °F 89% 29.94 in 7.0 mi Calm Calm - N/A Rain Light Rain
12:55 PM 71.4 °F 67.3 °F 87% 29.93 in 10.0 mi Calm Calm - N/A Rain Light Rain
1:15 PM 72.5 °F 68.0 °F 86% 29.92 in 10.0 mi ENE 6.9 mph - N/A Rain Light Rain
1:35 PM 70.7 °F 67.1 °F 88% 29.92 in 5.0 mi ENE 6.9 mph - 0.02 in Rain Light Rain
1:55 PM 70.9 °F 67.1 °F 88% 29.92 in 10.0 mi ENE 6.9 mph - 0.02 in   Overcast
2:15 PM 72.5 °F 68.0 °F 86% 29.92 in 10.0 mi NE 4.6 mph - N/A   Overcast
2:35 PM 71.8 °F 67.1 °F 85% 29.93 in 10.0 mi NE 3.5 mph - N/A Thunderstorm Overcast
2:55 PM 71.2 °F 66.6 °F 85% 29.92 in 10.0 mi Calm Calm - N/A Rain , Thunderstorm Light Thunderstorms and Rain
3:15 PM 70.9 °F 66.4 °F 86% 29.92 in 10.0 mi East 5.8 mph - N/A Rain , Thunderstorm Thunderstorms and Rain
3:35 PM 67.8 °F 64.4 °F 89% 29.93 in 3.0 mi ESE 9.2 mph - 0.07 in Rain , Thunderstorm Heavy Thunderstorms and Rain
3:55 PM 65.3 °F 61.9 °F 89% 29.93 in 1.0 mi ENE 4.6 mph - 0.42 in Rain , Thunderstorm Heavy Thunderstorms and Rain
4:15 PM 64.8 °F 62.1 °F 91% 29.92 in 2.0 mi Calm Calm - 0.18 in Rain , Thunderstorm Thunderstorms and Rain
4:35 PM 66.4 °F 63.7 °F 91% 29.93 in 7.0 mi Calm Calm - 0.21 in Rain , Thunderstorm Light Thunderstorms and Rain
4:55 PM 68.9 °F 65.3 °F 88% 29.92 in 7.0 mi ENE 9.2 mph 16.1 mph 0.24 in Rain , Thunderstorm Rain
5:15 PM 68.9 °F 64.9 °F 87% 29.92 in 10.0 mi East 9.2 mph 17.3 mph 0.01 in Rain , Thunderstorm Light Thunderstorms and Rain
5:35 PM 68.9 °F 64.6 °F 86% 29.93 in 10.0 mi East 13.8 mph 21.9 mph 0.02 in Rain , Thunderstorm Thunderstorms and Rain
5:55 PM 68.2 °F 64.4 °F 88% 29.93 in 4.0 mi East 12.7 mph 18.4 mph 0.09 in Rain Rain
6:15 PM 68.0 °F 64.4 °F 88% 29.92 in 5.0 mi East 10.4 mph - 0.06 in Rain Rain
6:35 PM 68.0 °F 64.0 °F 87% 29.92 in 10.0 mi East 12.7 mph 19.6 mph 0.11 in Rain Light Rain
6:55 PM 67.6 °F 63.5 °F 87% 29.92 in 10.0 mi East 13.8 mph 19.6 mph 0.12 in Rain Light Rain
7:15 PM 67.3 °F 63.5 °F 88% 29.93 in 10.0 mi East 9.2 mph 17.3 mph N/A   Mostly Cloudy
7:35 PM 67.3 °F 63.3 °F 87% 29.94 in 10.0 mi East 8.1 mph - N/A   Overcast
7:55 PM 67.1 °F 63.1 °F 87% 29.94 in 10.0 mi East 6.9 mph - N/A   Overcast
8:15 PM 66.9 °F 62.8 °F 87% 29.95 in 10.0 mi Calm Calm - N/A   Overcast
8:35 PM 67.1 °F 62.6 °F 85% 29.97 in 10.0 mi Calm Calm - N/A   Overcast
8:55 PM 66.9 °F 62.8 °F 87% 29.97 in 10.0 mi Calm Calm - N/A   Overcast
9:15 PM 66.7 °F 62.6 °F 86% 29.98 in 10.0 mi Calm Calm - N/A   Overcast
9:35 PM 67.1 °F 62.6 °F 85% 29.97 in 10.0 mi ENE 4.6 mph - N/A   Overcast
9:55 PM 67.1 °F 62.6 °F 85% 29.97 in 10.0 mi ENE 4.6 mph - N/A   Overcast
10:35 PM 67.1 °F 62.2 °F 84% 29.99 in 10.0 mi ENE 4.6 mph - N/A   Overcast
10:55 PM 67.1 °F 62.2 °F 84% 29.99 in 10.0 mi Calm Calm - N/A   Overcast
11:15 PM 66.9 °F 61.9 °F 84% 29.99 in 10.0 mi ENE 3.5 mph - N/A   Overcast
11:35 PM 66.9 °F 62.1 °F 84% 29.99 in 10.0 mi Calm Calm - N/A   Overcast
11:55 PM 66.7 °F 62.1 °F 85% 29.99 in 10.0 mi Calm Calm - N/A   Overcast